Weather History for Arctic Village, AK

Change the Weather History Date:

Saturday, January 26, 2013

  Actual Average Record
Temperature  
Mean Temperature -30 °F -  
Max Temperature -18 °F -19 °F 31 °F (1991)
Min Temperature -41 °F -37 °F -63 °F (1989)
Degree Days  
Heating Degree Days 94    
Moisture  
Dew Point -    
Average Humidity    
Maximum Humidity    
Minimum Humidity    
Precipitation  
Precipitation 0.00 in - - ()
Sea Level Pressure  
Sea Level Pressure 29.83 in    
Wind  
Wind Speed 1 mph (NE)    
Max Wind Speed 8 mph    
Max Gust Speed -    
Visibility 10 miles    
Events      
Averages and records for this station are not official NWS values.
T = Trace of Precipitation, MM = Missing Value Source: NWS Daily Summary

Daily Weather History Graph

Daily Weather History Graph

Search for Another Location

Airport:

Trip Planner

Search our weather history database for the weather conditions in past years. The results will help you decide how hot, cold, wet, or windy it might be!

Date:

Astronomy

Jan. 26, 2013 Rise Set
Actual Time 10:24 AM AKST 3:26 PM AKST
Civil Twilight 9:05 AM AKST 4:45 PM AKST
Nautical Twilight 7:52 AM AKST 5:59 PM AKST
Astronomical Twilight 6:46 AM AKST 7:05 PM AKST
Moon 4:07 PM AKST (1/26) 9:17 AM AKST (1/26)
Length of Visible Light 7h 40m
Length of Day
5h 01m
Full, 100% of the Moon is Illuminated
Jan 26
Full
Jan 26
Full
Feb 3
Last Quarter
Feb 9
New
Feb 17
First Quarter

Hourly Weather History & Observations

Time (AKST) Temp. Windchill Dew Point Humidity Pressure Visibility Wind Dir Wind Speed Gust Speed Precip Events Conditions
12:16 AM -29.2 °F - - N/A% 29.70 in 10.0 mi Calm Calm - N/A   Clear
12:36 AM -25.6 °F - - N/A% 29.69 in 10.0 mi Calm Calm - N/A   Scattered Clouds
12:56 AM -34.6 °F - - N/A% 29.70 in 10.0 mi Calm Calm - N/A   Scattered Clouds
1:16 AM -34.6 °F - - N/A% 29.71 in 10.0 mi Calm Calm - N/A   Mostly Cloudy
1:36 AM -25.6 °F - - N/A% 29.71 in 10.0 mi Calm Calm - N/A   Overcast
1:56 AM -27.4 °F - - N/A% 29.70 in 10.0 mi Calm Calm - N/A   Overcast
2:16 AM -32.8 °F - - N/A% 29.71 in 10.0 mi Calm Calm - N/A   Overcast
2:36 AM -29.2 °F - - N/A% 29.71 in 10.0 mi Calm Calm - N/A   Overcast
2:56 AM -27.4 °F - - N/A% 29.71 in 10.0 mi Calm Calm - N/A   Overcast
3:16 AM -23.8 °F -35.0 °F - N/A% 29.70 in 10.0 mi NNE 3.5 mph - N/A   Mostly Cloudy
3:36 AM -23.8 °F - - N/A% 29.71 in 10.0 mi Calm Calm - N/A   Mostly Cloudy
3:56 AM -23.8 °F - - N/A% 29.71 in 10.0 mi Calm Calm - N/A   Scattered Clouds
4:16 AM -23.8 °F - - N/A% 29.71 in 10.0 mi Calm Calm - N/A   Mostly Cloudy
4:36 AM -23.8 °F - - N/A% 29.72 in 10.0 mi Calm Calm - N/A   Scattered Clouds
4:56 AM -23.8 °F - - N/A% 29.73 in 10.0 mi Calm Calm - N/A   Clear
5:16 AM -23.8 °F - - N/A% 29.73 in 10.0 mi Calm Calm - N/A   Clear
5:36 AM -23.8 °F - - N/A% 29.73 in 10.0 mi Calm Calm - N/A   Clear
5:56 AM -22.0 °F - - N/A% 29.74 in 10.0 mi Calm Calm - N/A   Clear
6:16 AM -20.2 °F -35.5 °F - N/A% 29.74 in 10.0 mi NNE 5.8 mph - N/A   Clear
6:36 AM -18.4 °F -35.1 °F - N/A% 29.75 in 10.0 mi NE 6.9 mph - N/A   Clear
6:56 AM -18.4 °F -36.6 °F - N/A% 29.76 in 10.0 mi NE 8.1 mph - N/A   Clear
7:16 AM -18.4 °F -35.1 °F - N/A% 29.76 in 10.0 mi ENE 6.9 mph - N/A   Clear
7:36 AM -18.4 °F -35.1 °F - N/A% 29.77 in 10.0 mi NE 6.9 mph - N/A   Clear
7:56 AM -18.4 °F -36.6 °F - N/A% 29.78 in 10.0 mi ENE 8.1 mph - N/A   Clear
8:16 AM -18.4 °F -36.6 °F - N/A% 29.79 in 10.0 mi NE 8.1 mph - N/A   Clear
8:36 AM -18.4 °F -33.4 °F - N/A% 29.79 in 10.0 mi NNE 5.8 mph - N/A   Clear
8:56 AM -25.6 °F - - N/A% 29.80 in 10.0 mi Calm Calm - N/A   Clear
9:16 AM -25.6 °F - - N/A% 29.81 in 10.0 mi Calm Calm - N/A   Partly Cloudy
9:36 AM -25.6 °F -41.9 °F - N/A% 29.81 in 10.0 mi East 5.8 mph - N/A   Partly Cloudy
9:56 AM -23.8 °F -39.8 °F - N/A% 29.81 in 10.0 mi East 5.8 mph - N/A   Clear
10:16 AM -23.8 °F -35.0 °F - N/A% 29.82 in 10.0 mi East 3.5 mph - N/A   Clear
10:36 AM -23.8 °F - - N/A% 29.82 in 10.0 mi Calm Calm - N/A   Clear
10:56 AM -27.4 °F - - N/A% 29.83 in 10.0 mi Calm Calm - N/A   Clear
11:16 AM -27.4 °F - - N/A% 29.84 in 10.0 mi Calm Calm - N/A   Clear
11:36 AM -31.0 °F - - N/A% 29.84 in 10.0 mi Calm Calm - N/A   Clear
11:56 AM -27.4 °F - - N/A% 29.84 in 10.0 mi Calm Calm - N/A   Clear
12:16 PM -27.4 °F - - N/A% 29.84 in 10.0 mi Calm Calm - N/A   Clear
12:36 PM -23.8 °F - - N/A% 29.85 in 10.0 mi Calm Calm - N/A   Clear
12:56 PM -23.8 °F -35.0 °F - N/A% 29.85 in 10.0 mi NE 3.5 mph - N/A   Clear
1:16 PM -29.2 °F - - N/A% 29.86 in 10.0 mi Calm Calm - N/A   Mostly Cloudy
1:36 PM -29.2 °F - - N/A% 29.86 in 10.0 mi Calm Calm - N/A   Mostly Cloudy
1:56 PM -29.2 °F - - N/A% 29.86 in 10.0 mi Calm Calm - N/A   Partly Cloudy
2:16 PM -29.2 °F - - N/A% 29.87 in 10.0 mi Calm Calm - N/A   Clear
2:36 PM -31.0 °F - - N/A% 29.87 in 10.0 mi Calm Calm - N/A   Clear
2:56 PM -32.8 °F - - N/A% 29.87 in 10.0 mi Calm Calm - N/A   Clear
3:16 PM -32.8 °F - - N/A% 29.87 in 10.0 mi Calm Calm - N/A   Clear
3:36 PM -32.8 °F - - N/A% 29.88 in 10.0 mi Calm Calm - N/A   Clear
3:56 PM -32.8 °F - - N/A% 29.88 in 10.0 mi Calm Calm - N/A   Clear
4:16 PM -34.6 °F - - N/A% 29.89 in 10.0 mi Calm Calm - N/A   Clear
4:36 PM -32.8 °F - - N/A% 29.89 in 10.0 mi Calm Calm - N/A   Clear
4:56 PM -34.6 °F - - N/A% 29.89 in 10.0 mi Calm Calm - N/A   Clear
5:16 PM -31.0 °F - - N/A% 29.89 in 10.0 mi Calm Calm - N/A   Clear
5:36 PM -34.6 °F - - N/A% 29.90 in 10.0 mi Calm Calm - N/A   Clear
5:56 PM -36.4 °F - - N/A% 29.90 in 10.0 mi Calm Calm - N/A   Scattered Clouds
6:16 PM -34.6 °F - - N/A% 29.90 in 10.0 mi Calm Calm - N/A   Overcast
6:36 PM -38.2 °F - - N/A% 29.90 in 10.0 mi Calm Calm - N/A   Overcast
6:56 PM -36.4 °F - - N/A% 29.91 in 10.0 mi Calm Calm - N/A   Overcast
7:16 PM -36.4 °F - - N/A% 29.91 in 10.0 mi Calm Calm - N/A   Overcast
7:36 PM -38.2 °F - - N/A% 29.91 in 10.0 mi Calm Calm - N/A   Mostly Cloudy
7:56 PM -34.6 °F - - N/A% 29.91 in 10.0 mi Calm Calm - N/A   Mostly Cloudy
8:16 PM -38.2 °F - - N/A% 29.92 in 10.0 mi Calm Calm - N/A   Overcast
8:36 PM -38.2 °F - - N/A% 29.92 in 10.0 mi Calm Calm - N/A   Overcast
8:56 PM -40.0 °F - - N/A% 29.92 in 10.0 mi Calm Calm - N/A   Overcast
9:16 PM -38.2 °F - - N/A% 29.92 in 10.0 mi Calm Calm - N/A   Overcast
9:36 PM -38.2 °F - - N/A% 29.92 in 10.0 mi Calm Calm - N/A   Scattered Clouds
9:56 PM -41.8 °F - - N/A% 29.93 in 10.0 mi Calm Calm - N/A   Partly Cloudy
10:16 PM -38.2 °F - - N/A% 29.93 in 10.0 mi Calm Calm - N/A   Clear
10:36 PM -41.8 °F - - N/A% 29.93 in 10.0 mi Calm Calm - N/A   Clear
10:56 PM -41.8 °F - - N/A% 29.93 in 10.0 mi Calm Calm - N/A   Clear
11:16 PM -41.8 °F - - N/A% 29.94 in 10.0 mi Calm Calm - N/A   Clear
11:36 PM -34.6 °F - - N/A% 29.94 in 10.0 mi Calm Calm - N/A   Clear
11:56 PM -38.2 °F - - N/A% 29.94 in 10.0 mi Calm Calm - N/A   Clear